THY5YN LTFM-LQSA

Flight info

Callsign THY5YN
Flight time 1h 24m
Altitude 38000
Route VADEN N618 BAKLO DCT DOLAP DCT VEBAR/N0366F200 Z924 KEB
Aircraft A321/M-SDE3FGHIRWY/LB1

Departure

Time 2026-04-25 09:01
Airport İstanbul Airport (LTFM)

Arrival

Time 2026-04-25 10:25
Airport Sarajevo International Airport (LQSA)
Time Latitude Longitude Altitude Speed Heading
2026-04-25 08:30 41.26701 28.74731 333 ft 0 kts 90°
2026-04-25 08:43 41.26701 28.74730 333 ft 0 kts 90°
2026-04-25 08:43 41.26701 28.74711 333 ft 2 kts 90°
2026-04-25 08:43 41.26701 28.74692 333 ft 2 kts 90°
2026-04-25 08:43 41.26701 28.74672 333 ft 2 kts 90°
2026-04-25 08:44 41.26701 28.74658 333 ft 0 kts 90°
2026-04-25 08:44 41.26699 28.74639 333 ft 2 kts 63°
2026-04-25 08:44 41.26689 28.74622 333 ft 2 kts 40°
2026-04-25 08:44 41.26676 28.74613 333 ft 2 kts 14°
2026-04-25 08:45 41.26667 28.74611 333 ft 1 kts 359°
2026-04-25 08:45 41.26662 28.74611 333 ft 0 kts 359°
2026-04-25 08:48 41.26667 28.74611 333 ft 6 kts 359°
2026-04-25 08:48 41.26763 28.74609 333 ft 14 kts 359°
2026-04-25 08:48 41.26868 28.74604 333 ft 14 kts 357°
2026-04-25 08:49 41.26971 28.74604 333 ft 14 kts
2026-04-25 08:49 41.27045 28.74538 333 ft 14 kts 270°
2026-04-25 08:49 41.27045 28.74403 333 ft 14 kts 270°
2026-04-25 08:49 41.27043 28.74266 333 ft 14 kts 269°
2026-04-25 08:50 41.27042 28.74128 333 ft 15 kts 270°
2026-04-25 08:50 41.27041 28.73987 333 ft 15 kts 270°
2026-04-25 08:50 41.27041 28.73845 333 ft 15 kts 270°
2026-04-25 08:50 41.27040 28.73699 333 ft 15 kts 268°
2026-04-25 08:51 41.27037 28.73555 333 ft 15 kts 269°
2026-04-25 08:51 41.27036 28.73407 333 ft 15 kts 269°
2026-04-25 08:51 41.27034 28.73260 333 ft 16 kts 268°
2026-04-25 08:51 41.27030 28.73110 333 ft 16 kts 270°
2026-04-25 08:52 41.27069 28.72986 333 ft 15 kts 344°
2026-04-25 08:52 41.27179 28.72983 333 ft 15 kts
2026-04-25 08:52 41.27292 28.72981 333 ft 18 kts 359°
2026-04-25 08:52 41.27463 28.72976 333 ft 29 kts 359°
2026-04-25 08:53 41.27663 28.72973 333 ft 27 kts 359°
2026-04-25 08:53 41.27848 28.72971 333 ft 25 kts 359°
2026-04-25 08:53 41.28022 28.72968 333 ft 24 kts 360°
2026-04-25 08:53 41.28189 28.72962 333 ft 23 kts 359°
2026-04-25 08:54 41.28345 28.72959 333 ft 22 kts 360°
2026-04-25 08:54 41.28497 28.72959 333 ft 21 kts
2026-04-25 08:54 41.28641 28.72953 333 ft 20 kts 357°
2026-04-25 08:54 41.28786 28.72950 333 ft 24 kts 359°
2026-04-25 08:55 41.28994 28.72947 333 ft 30 kts 359°
2026-04-25 08:55 41.29201 28.72944 333 ft 28 kts 359°
2026-04-25 08:55 41.29347 28.72940 333 ft 15 kts 359°
2026-04-25 08:55 41.29428 28.72938 333 ft 10 kts 359°
2026-04-25 08:56 41.29470 28.72917 333 ft 0 kts 315°
2026-04-25 08:57 41.29483 28.72879 333 ft 11 kts 279°
2026-04-25 08:57 41.29481 28.72722 333 ft 19 kts 268°
2026-04-25 08:57 41.29480 28.72541 333 ft 19 kts 271°
2026-04-25 08:57 41.29476 28.72368 333 ft 18 kts 268°
2026-04-25 08:58 41.29525 28.72231 333 ft 17 kts 346°
2026-04-25 08:58 41.29633 28.72241 333 ft 5 kts 11°
2026-04-25 08:58 41.29665 28.72270 333 ft 6 kts 69°
2026-04-25 08:58 41.29671 28.72295 333 ft 0 kts 77°
2026-04-25 08:59 41.29673 28.72305 333 ft 5 kts 83°
2026-04-25 08:59 41.29674 28.72360 333 ft 6 kts 90°
2026-04-25 08:59 41.29673 28.72424 333 ft 7 kts 102°
2026-04-25 09:00 41.29632 28.72460 333 ft 8 kts 176°
2026-04-25 09:00 41.29503 28.72462 333 ft 44 kts 180°
2026-04-25 09:00 41.28958 28.72473 333 ft 109 kts 179°
2026-04-25 09:00 41.28009 28.72492 333 ft 162 kts 179°
2026-04-25 09:01 41.26825 28.72517 798 ft 167 kts 178°
2026-04-25 09:01 41.25706 28.72507 1412 ft 163 kts 180°
2026-04-25 09:01 41.24577 28.72459 1952 ft 162 kts 179°
2026-04-25 09:01 41.23459 28.72178 2224 ft 171 kts 202°
2026-04-25 09:02 41.22331 28.71544 2454 ft 180 kts 189°
2026-04-25 09:02 41.21060 28.71326 2704 ft 191 kts 191°
2026-04-25 09:02 41.19868 28.70419 2936 ft 207 kts 228°
2026-04-25 09:02 41.19268 28.68648 3184 ft 221 kts 263°
2026-04-25 09:03 41.19428 28.66570 3434 ft 237 kts 282°
2026-04-25 09:03 41.19588 28.64322 3709 ft 255 kts 269°
2026-04-25 09:03 41.19391 28.61904 4066 ft 272 kts 261°
2026-04-25 09:03 41.19352 28.59377 4601 ft 277 kts 283°
2026-04-25 09:04 41.20192 28.57104 5053 ft 278 kts 313°
2026-04-25 09:04 41.21713 28.55627 5762 ft 276 kts 340°
2026-04-25 09:04 41.23576 28.55173 6548 ft 274 kts
2026-04-25 09:04 41.25483 28.55189 7281 ft 277 kts
2026-04-25 09:05 41.27423 28.55205 7985 ft 281 kts
2026-04-25 09:05 41.29358 28.55198 8682 ft 284 kts
2026-04-25 09:05 41.31353 28.55289 9385 ft 287 kts
2026-04-25 09:05 41.33328 28.55551 10054 ft 290 kts
2026-04-25 09:06 41.35369 28.55860 10565 ft 300 kts
2026-04-25 09:06 41.37498 28.56189 10877 ft 316 kts
2026-04-25 09:06 41.39740 28.56533 11229 ft 330 kts
2026-04-25 09:06 41.42023 28.56878 11815 ft 335 kts
2026-04-25 09:07 41.44359 28.57098 12469 ft 337 kts
2026-04-25 09:07 41.46719 28.57111 13113 ft 339 kts 360°
2026-04-25 09:07 41.49068 28.57064 13724 ft 342 kts 359°
2026-04-25 09:07 41.51463 28.57007 14321 ft 346 kts 359°
2026-04-25 09:08 41.53874 28.56950 14922 ft 349 kts 359°
2026-04-25 09:08 41.56297 28.56897 15513 ft 351 kts 359°
2026-04-25 09:08 41.58760 28.56845 16094 ft 353 kts 359°
2026-04-25 09:08 41.61208 28.56794 16658 ft 356 kts 359°
2026-04-25 09:09 41.63720 28.56742 17210 ft 359 kts 360°
2026-04-25 09:09 41.66205 28.56689 17752 ft 361 kts 360°
2026-04-25 09:09 41.68719 28.56636 18293 ft 363 kts
2026-04-25 09:09 41.71222 28.56383 18795 ft 367 kts 348°
2026-04-25 09:10 41.73586 28.54999 19279 ft 371 kts 326°
2026-04-25 09:10 41.75401 28.52611 19768 ft 375 kts 306°
2026-04-25 09:10 41.76513 28.49429 20250 ft 379 kts 285°
2026-04-25 09:10 41.76836 28.45943 20749 ft 382 kts 275°
2026-04-25 09:11 41.77145 28.38815 21662 ft 387 kts 275°
2026-04-25 09:11 41.77322 28.35196 22110 ft 389 kts 275°
2026-04-25 09:11 41.77508 28.31591 22567 ft 391 kts 275°
2026-04-25 09:12 41.77699 28.27957 23009 ft 393 kts 275°
2026-04-25 09:12 41.77894 28.24295 23416 ft 396 kts 275°
2026-04-25 09:12 41.78325 28.20643 23799 ft 397 kts 285°
2026-04-25 09:12 41.79226 28.17177 24201 ft 398 kts 295°
2026-04-25 09:13 41.80536 28.13915 24601 ft 399 kts 301°
2026-04-25 09:13 41.81975 28.10724 24979 ft 401 kts 302°
2026-04-25 09:13 41.83424 28.07546 25352 ft 403 kts 302°
2026-04-25 09:13 41.84786 28.04286 25703 ft 407 kts 296°
2026-04-25 09:14 41.85725 28.00690 26053 ft 411 kts 285°
2026-04-25 09:14 41.86164 27.96925 26411 ft 414 kts 276°
2026-04-25 09:14 41.86315 27.93079 26774 ft 416 kts 274°
2026-04-25 09:14 41.86419 27.89192 27123 ft 418 kts 273°
2026-04-25 09:15 41.86520 27.85312 27462 ft 420 kts 274°
2026-04-25 09:15 41.86629 27.81380 27798 ft 421 kts 274°
2026-04-25 09:15 41.86743 27.77458 28118 ft 423 kts 274°
2026-04-25 09:15 41.86861 27.73506 28437 ft 425 kts 274°
2026-04-25 09:16 41.86979 27.69578 28745 ft 427 kts 274°
2026-04-25 09:16 41.87098 27.65603 29038 ft 429 kts 274°
2026-04-25 09:16 41.87218 27.61574 29209 ft 433 kts 274°
2026-04-25 09:16 41.87337 27.57512 29336 ft 439 kts 275°
2026-04-25 09:17 41.88562 27.49545 29568 ft 443 kts 294°
2026-04-25 09:17 41.90003 27.45874 29682 ft 445 kts 305°
2026-04-25 09:17 41.91928 27.42604 29808 ft 447 kts 314°
2026-04-25 09:18 41.94052 27.39534 29924 ft 451 kts 315°
2026-04-25 09:18 41.96192 27.36507 30029 ft 455 kts 315°
2026-04-25 09:18 41.98407 27.33365 30183 ft 457 kts 314°
2026-04-25 09:18 42.00571 27.30274 30428 ft 457 kts 314°
2026-04-25 09:19 42.02732 27.27166 30707 ft 456 kts 314°
2026-04-25 09:19 42.04894 27.24045 30988 ft 455 kts 314°
2026-04-25 09:19 42.07059 27.20910 31241 ft 455 kts 314°
2026-04-25 09:19 42.09165 27.17783 31478 ft 455 kts 314°
2026-04-25 09:20 42.11296 27.14579 31725 ft 454 kts 313°
2026-04-25 09:20 42.13394 27.11416 31977 ft 454 kts 313°
2026-04-25 09:20 42.15498 27.08240 32255 ft 452 kts 314°
2026-04-25 09:20 42.17569 27.05115 32526 ft 451 kts 314°
2026-04-25 09:21 42.19653 27.01970 32776 ft 450 kts 314°
2026-04-25 09:21 42.21734 26.98827 33016 ft 449 kts 314°
2026-04-25 09:21 42.23811 26.95690 33248 ft 449 kts 314°
2026-04-25 09:21 42.25894 26.92537 33473 ft 448 kts 314°
2026-04-25 09:22 42.27969 26.89395 33704 ft 447 kts 314°
2026-04-25 09:22 42.30021 26.86283 33928 ft 446 kts 314°
2026-04-25 09:22 42.32080 26.83157 34154 ft 446 kts 314°
2026-04-25 09:22 42.34126 26.80049 34357 ft 445 kts 314°
2026-04-25 09:23 42.36202 26.76892 34553 ft 445 kts 314°
2026-04-25 09:23 42.38256 26.73765 34745 ft 444 kts 314°
2026-04-25 09:23 42.40292 26.70662 34914 ft 443 kts 314°
2026-04-25 09:23 42.42345 26.67529 35065 ft 443 kts 314°
2026-04-25 09:24 42.44369 26.64435 35212 ft 443 kts 314°
2026-04-25 09:24 42.46413 26.61311 35355 ft 443 kts 314°
2026-04-25 09:24 42.48424 26.58199 35496 ft 443 kts 313°
2026-04-25 09:24 42.50334 26.54915 35635 ft 444 kts 309°
2026-04-25 09:25 42.52092 26.51462 35772 ft 445 kts 306°
2026-04-25 09:25 42.53685 26.47865 35894 ft 446 kts 302°
2026-04-25 09:25 42.55099 26.44147 36005 ft 448 kts 299°
2026-04-25 09:25 42.56350 26.40270 36120 ft 449 kts 295°
2026-04-25 09:26 42.57423 26.36267 36225 ft 451 kts 292°
2026-04-25 09:26 42.58412 26.32206 36339 ft 451 kts 291°
2026-04-25 09:26 42.59375 26.28184 36436 ft 451 kts 291°
2026-04-25 09:27 42.61313 26.20055 36614 ft 452 kts 291°
2026-04-25 09:27 42.62278 26.16009 36746 ft 452 kts 291°
2026-04-25 09:27 42.63231 26.12014 36869 ft 451 kts 291°
2026-04-25 09:27 42.64194 26.07972 36999 ft 451 kts 291°
2026-04-25 09:28 42.65160 26.03912 37127 ft 451 kts 291°
2026-04-25 09:28 42.66117 25.99885 37245 ft 450 kts 291°
2026-04-25 09:28 42.67078 25.95835 37358 ft 450 kts 291°
2026-04-25 09:29 42.68988 25.87761 37558 ft 450 kts 291°
2026-04-25 09:29 42.69946 25.83708 37671 ft 450 kts 291°
2026-04-25 09:29 42.70899 25.79661 37773 ft 450 kts 291°
2026-04-25 09:30 42.72792 25.71611 37935 ft 450 kts 291°
2026-04-25 09:30 42.74627 25.63772 38029 ft 450 kts 291°
2026-04-25 09:31 42.76524 25.55640 37942 ft 450 kts 291°
2026-04-25 09:31 42.78402 25.47562 38250 ft 450 kts 291°
2026-04-25 09:31 42.79337 25.43526 38105 ft 449 kts 291°
2026-04-25 09:32 42.80271 25.39486 38062 ft 447 kts 291°
2026-04-25 09:32 42.82143 25.31370 38041 ft 447 kts 291°
2026-04-25 09:33 42.84002 25.23291 38043 ft 448 kts 291°
2026-04-25 09:33 42.85849 25.15230 38046 ft 449 kts 291°
2026-04-25 09:34 42.87700 25.07124 38048 ft 449 kts 291°
2026-04-25 09:34 42.89548 24.98992 38051 ft 448 kts 291°
2026-04-25 09:35 42.91381 24.90903 38051 ft 448 kts 291°
2026-04-25 09:35 42.93210 24.82798 38053 ft 447 kts 291°
2026-04-25 09:36 42.95026 24.74728 38050 ft 447 kts 291°
2026-04-25 09:36 42.96834 24.66660 38054 ft 447 kts 291°
2026-04-25 09:37 42.98653 24.58506 38057 ft 448 kts 291°
2026-04-25 09:37 43.00460 24.50384 38051 ft 448 kts 291°
2026-04-25 09:38 43.02249 24.42301 38054 ft 448 kts 291°
2026-04-25 09:38 43.04044 24.34170 38056 ft 448 kts 290°
2026-04-25 09:39 43.05844 24.25984 38052 ft 447 kts 290°
2026-04-25 09:39 43.07622 24.17866 38051 ft 446 kts 290°
2026-04-25 09:40 43.10282 24.05666 38052 ft 446 kts 290°
2026-04-25 09:40 43.12057 23.97482 38051 ft 448 kts 290°
2026-04-25 09:41 43.13811 23.89362 38048 ft 447 kts 290°
2026-04-25 09:41 43.15571 23.81187 38048 ft 448 kts 290°
2026-04-25 09:42 43.17314 23.73058 38043 ft 447 kts 290°
2026-04-25 09:42 43.19065 23.64855 38050 ft 446 kts 290°
2026-04-25 09:43 43.20796 23.56719 38053 ft 447 kts 290°
2026-04-25 09:43 43.22532 23.48533 38051 ft 447 kts 290°
2026-04-25 09:44 43.24250 23.40397 38048 ft 447 kts 290°
2026-04-25 09:44 43.25980 23.32168 38044 ft 446 kts 290°
2026-04-25 09:45 43.27697 23.23966 38046 ft 447 kts 290°
2026-04-25 09:45 43.29398 23.15802 38049 ft 447 kts 290°
2026-04-25 09:46 43.31096 23.07633 38051 ft 447 kts 290°
2026-04-25 09:46 43.32790 22.99442 38050 ft 446 kts 290°
2026-04-25 09:47 43.34476 22.91265 38053 ft 446 kts 290°
2026-04-25 09:47 43.36145 22.83121 38052 ft 446 kts 290°
2026-04-25 09:48 43.37843 22.74904 38055 ft 445 kts 291°
2026-04-25 09:48 43.39698 22.66852 38053 ft 444 kts 292°
2026-04-25 09:49 43.41577 22.58768 38053 ft 444 kts 292°
2026-04-25 09:49 43.43436 22.50693 38052 ft 444 kts 292°
2026-04-25 09:50 43.45272 22.42652 38055 ft 444 kts 291°
2026-04-25 09:50 43.47111 22.34559 38055 ft 444 kts 291°
2026-04-25 09:51 43.48951 22.26423 38056 ft 443 kts 291°
2026-04-25 09:51 43.50769 22.18353 38059 ft 443 kts 291°
2026-04-25 09:52 43.52580 22.10289 38060 ft 443 kts 291°
2026-04-25 09:52 43.54397 22.02164 38057 ft 442 kts 291°
2026-04-25 09:53 43.56188 21.94126 38064 ft 443 kts 291°
2026-04-25 09:53 43.57988 21.86015 38056 ft 442 kts 291°
2026-04-25 09:54 43.59774 21.77939 38053 ft 443 kts 291°
2026-04-25 09:54 43.61565 21.69810 38052 ft 443 kts 291°
2026-04-25 09:55 43.63343 21.61708 38049 ft 443 kts 291°
2026-04-25 09:55 43.65114 21.53608 38046 ft 442 kts 291°
2026-04-25 09:56 43.66882 21.45491 38045 ft 442 kts 291°
2026-04-25 09:56 43.68632 21.37424 38043 ft 442 kts 291°
2026-04-25 09:57 43.70401 21.29240 38043 ft 442 kts 290°
2026-04-25 09:57 43.72141 21.21159 38044 ft 442 kts 290°
2026-04-25 09:58 43.73890 21.13000 38049 ft 442 kts 290°
2026-04-25 09:58 43.75632 21.04848 38055 ft 443 kts 290°
2026-04-25 09:59 43.77363 20.96711 38060 ft 443 kts 290°
2026-04-25 09:59 43.79091 20.88564 38064 ft 442 kts 290°
2026-04-25 10:00 43.80808 20.80424 38064 ft 442 kts 290°
2026-04-25 10:00 43.82520 20.72286 38065 ft 442 kts 290°
2026-04-25 10:01 43.84233 20.64109 38066 ft 442 kts 290°
2026-04-25 10:01 43.85939 20.55934 37989 ft 443 kts 290°
2026-04-25 10:02 43.86794 20.51824 37613 ft 443 kts 289°
2026-04-25 10:02 43.87642 20.47734 37111 ft 443 kts 289°
2026-04-25 10:02 43.88490 20.43640 36554 ft 443 kts 289°
2026-04-25 10:02 43.89332 20.39566 36049 ft 444 kts 289°
2026-04-25 10:03 43.90188 20.35422 35539 ft 446 kts 289°
2026-04-25 10:03 43.91042 20.31276 34982 ft 448 kts 289°
2026-04-25 10:03 43.91896 20.27121 34416 ft 449 kts 289°
2026-04-25 10:03 43.92751 20.22951 33864 ft 451 kts 288°
2026-04-25 10:04 43.93605 20.18787 33285 ft 452 kts 288°
2026-04-25 10:04 43.94457 20.14613 32658 ft 450 kts 288°
2026-04-25 10:04 43.95303 20.10456 31993 ft 447 kts 288°
2026-04-25 10:04 43.96147 20.06305 31309 ft 445 kts 288°
2026-04-25 10:05 43.96973 20.02229 30706 ft 441 kts 288°
2026-04-25 10:05 43.97796 19.98154 30248 ft 434 kts 288°
2026-04-25 10:05 43.98603 19.94158 29771 ft 428 kts 288°
2026-04-25 10:05 43.99395 19.90230 29310 ft 423 kts 288°
2026-04-25 10:06 44.00178 19.86344 28841 ft 418 kts 288°
2026-04-25 10:06 44.00954 19.82477 28380 ft 413 kts 288°
2026-04-25 10:06 44.01718 19.78670 27924 ft 408 kts 288°
2026-04-25 10:06 44.02475 19.74886 27471 ft 403 kts 288°
2026-04-25 10:07 44.03222 19.71150 27024 ft 399 kts 288°
2026-04-25 10:07 44.03949 19.67505 26595 ft 394 kts 288°
2026-04-25 10:07 44.04678 19.63846 26156 ft 390 kts 288°
2026-04-25 10:07 44.05394 19.60241 25725 ft 386 kts 288°
2026-04-25 10:08 44.06103 19.56665 25288 ft 382 kts 287°
2026-04-25 10:08 44.06804 19.53118 24844 ft 378 kts 288°
2026-04-25 10:08 44.07498 19.49608 24388 ft 375 kts 288°
2026-04-25 10:08 44.08174 19.46180 23949 ft 372 kts 287°
2026-04-25 10:09 44.08853 19.42734 23515 ft 369 kts 287°
2026-04-25 10:09 44.09527 19.39307 23097 ft 366 kts 287°
2026-04-25 10:09 44.10200 19.35868 22674 ft 363 kts 287°
2026-04-25 10:09 44.10867 19.32460 22250 ft 361 kts 287°
2026-04-25 10:10 44.11523 19.29098 21823 ft 359 kts 287°
2026-04-25 10:10 44.12169 19.25783 21399 ft 357 kts 287°
2026-04-25 10:10 44.12817 19.22452 20961 ft 356 kts 287°
2026-04-25 10:10 44.13304 19.19059 20514 ft 357 kts 279°
2026-04-25 10:11 44.13450 19.15622 20084 ft 358 kts 271°
2026-04-25 10:11 44.13293 19.12190 19655 ft 358 kts 267°
2026-04-25 10:11 44.13050 19.08772 19209 ft 358 kts 266°
2026-04-25 10:11 44.12792 19.05342 18765 ft 357 kts 266°
2026-04-25 10:12 44.12535 19.01916 18318 ft 356 kts 266°
2026-04-25 10:12 44.12280 18.98486 17869 ft 356 kts 266°
2026-04-25 10:12 44.11778 18.91681 16961 ft 355 kts 266°
2026-04-25 10:13 44.11527 18.88258 16513 ft 354 kts 266°
2026-04-25 10:13 44.11277 18.84874 16048 ft 354 kts 266°
2026-04-25 10:13 44.11026 18.81476 15598 ft 353 kts 266°
2026-04-25 10:13 44.10774 18.78091 15131 ft 353 kts 266°
2026-04-25 10:14 44.10522 18.74702 14670 ft 352 kts 266°
2026-04-25 10:14 44.10272 18.71358 14218 ft 352 kts 266°
2026-04-25 10:14 44.10016 18.67950 13722 ft 353 kts 266°
2026-04-25 10:14 44.09761 18.64556 13248 ft 353 kts 266°
2026-04-25 10:15 44.09506 18.61181 12788 ft 352 kts 266°
2026-04-25 10:15 44.09250 18.57804 12331 ft 351 kts 266°
2026-04-25 10:15 44.08997 18.54481 11888 ft 350 kts 266°
2026-04-25 10:15 44.08740 18.51131 11444 ft 349 kts 266°
2026-04-25 10:16 44.08480 18.47757 10972 ft 347 kts 266°
2026-04-25 10:16 44.08223 18.44438 10533 ft 344 kts 267°
2026-04-25 10:16 44.07973 18.41218 10324 ft 334 kts 267°
2026-04-25 10:16 44.07726 18.38067 10198 ft 322 kts 267°
2026-04-25 10:17 44.07487 18.35020 10056 ft 312 kts 267°
2026-04-25 10:17 44.07254 18.32038 9756 ft 307 kts 266°
2026-04-25 10:17 44.07025 18.29121 9468 ft 303 kts 266°
2026-04-25 10:17 44.06793 18.26219 9181 ft 299 kts 265°
2026-04-25 10:18 44.06392 18.23470 8903 ft 297 kts 257°
2026-04-25 10:18 44.05753 18.20791 8640 ft 294 kts 252°
2026-04-25 10:18 44.05039 18.18139 8380 ft 290 kts 251°
2026-04-25 10:18 44.04333 18.15558 8112 ft 286 kts 251°
2026-04-25 10:19 44.03634 18.12988 7819 ft 283 kts 251°
2026-04-25 10:19 44.02944 18.10432 7510 ft 281 kts 251°
2026-04-25 10:19 44.02211 18.07946 7254 ft 277 kts 242°
2026-04-25 10:19 44.00878 18.06093 6954 ft 277 kts 207°
2026-04-25 10:20 43.99027 18.05474 6697 ft 273 kts 182°
2026-04-25 10:20 43.97134 18.05480 6464 ft 269 kts 178°
2026-04-25 10:20 43.95278 18.05516 6235 ft 265 kts 179°
2026-04-25 10:20 43.93472 18.05590 6024 ft 259 kts 168°
2026-04-25 10:21 43.91916 18.06692 5760 ft 252 kts 131°
2026-04-25 10:21 43.91041 18.08740 5532 ft 246 kts 110°
2026-04-25 10:21 43.90425 18.10948 5145 ft 242 kts 109°
2026-04-25 10:21 43.89796 18.13075 4719 ft 235 kts 112°
2026-04-25 10:22 43.89359 18.14426 4458 ft 231 kts 113°
2026-04-25 10:22 43.88689 18.16368 4348 ft 215 kts 115°
2026-04-25 10:22 43.87822 18.18765 3894 ft 203 kts 115°
2026-04-25 10:22 43.87195 18.20462 3591 ft 193 kts 115°
2026-04-25 10:23 43.86593 18.22081 3295 ft 183 kts 115°
2026-04-25 10:23 43.86026 18.23604 3005 ft 175 kts 116°
2026-04-25 10:23 43.85470 18.25081 2728 ft 166 kts 116°
2026-04-25 10:23 43.84960 18.26447 2501 ft 156 kts 115°
2026-04-25 10:24 43.84477 18.27764 2343 ft 153 kts 116°
2026-04-25 10:24 43.83978 18.29075 2216 ft 153 kts 116°
2026-04-25 10:24 43.83490 18.30389 1998 ft 152 kts 116°
2026-04-25 10:24 43.83010 18.31680 1786 ft 152 kts 116°
2026-04-25 10:25 43.82556 18.32900 1740 ft 117 kts 117°
2026-04-25 10:25 43.82301 18.33565 1740 ft 44 kts 117°
2026-04-25 10:25 43.82288 18.33682 1740 ft 1 kts 346°
2026-04-25 10:25 43.82319 18.33673 1741 ft 7 kts 348°
2026-04-25 10:26 43.82368 18.33658 1741 ft 7 kts 347°
2026-04-25 10:26 43.82416 18.33641 1740 ft 6 kts 347°
2026-04-25 10:26 43.82462 18.33652 1740 ft 6 kts 23°
2026-04-25 10:26 43.82504 18.33680 1741 ft 6 kts 26°
2026-04-25 10:27 43.82516 18.33689 1741 ft 0 kts 26°